Time,TemperatureF,DewpointF,PressureIn,WindDirection,WindDirectionDegrees,WindSpeedMPH,WindSpeedGustMPH,Humidity,HourlyPrecipIn,Conditions,Clouds,dailyrainin,SoftwareType,DateUTC
2013-04-25 00:03:00,50.9,50.4,29.91,SW,225,3.8,-999.0,98,-99.99,,,0.00,Acu-Link.com,2013-04-25 04:03:00,
2013-04-25 00:18:00,51.1,50.5,29.91,SW,225,6.3,-999.0,98,-99.99,,,0.00,Acu-Link.com,2013-04-25 04:18:00,
2013-04-25 00:34:00,51.1,50.5,29.90,SW,225,8.9,-999.0,98,-99.99,,,0.00,Acu-Link.com,2013-04-25 04:34:00,
2013-04-25 00:49:00,51.1,50.5,29.90,West,270,6.3,-999.0,98,-99.99,,,0.00,Acu-Link.com,2013-04-25 04:49:00,
2013-04-25 01:04:00,51.3,50.7,29.89,SSW,202,5.1,-999.0,98,-99.99,,,0.00,Acu-Link.com,2013-04-25 05:04:00,
2013-04-25 01:19:00,51.4,50.9,29.90,SSW,202,5.1,-999.0,98,-99.99,,,0.00,Acu-Link.com,2013-04-25 05:19:00,
2013-04-25 01:34:00,51.6,51.1,29.90,SW,225,6.3,-999.0,98,-99.99,,,0.00,Acu-Link.com,2013-04-25 05:34:00,
2013-04-25 01:50:00,51.6,51.1,29.89,SSW,202,3.8,-999.0,98,-99.99,,,0.00,Acu-Link.com,2013-04-25 05:50:00,
2013-04-25 02:05:00,51.4,50.9,29.90,SSE,157,7.4,-999.0,98,-99.99,,,0.00,Acu-Link.com,2013-04-25 06:05:00,
2013-04-25 02:20:00,51.6,51.1,29.91,South,180,2.2,-999.0,98,-99.99,,,0.00,Acu-Link.com,2013-04-25 06:20:00,
2013-04-25 02:35:00,51.6,51.1,29.91,SSE,157,2.7,-999.0,98,-99.99,,,0.00,Acu-Link.com,2013-04-25 06:35:00,
2013-04-25 02:50:00,52.0,51.4,29.90,South,180,2.7,-999.0,98,-99.99,,,0.00,Acu-Link.com,2013-04-25 06:50:00,
2013-04-25 03:06:00,52.2,51.6,29.90,SW,225,2.7,-999.0,98,-99.99,,,0.00,Acu-Link.com,2013-04-25 07:06:00,
2013-04-25 03:21:00,52.2,51.6,29.91,SSW,202,0.0,-999.0,98,-99.99,,,0.00,Acu-Link.com,2013-04-25 07:21:00,
2013-04-25 03:36:00,52.3,51.8,29.91,SE,135,1.6,-999.0,98,-99.99,,,0.00,Acu-Link.com,2013-04-25 07:36:00,
2013-04-25 03:51:00,52.7,52.2,29.92,WSW,247,1.6,-999.0,98,-99.99,,,0.00,Acu-Link.com,2013-04-25 07:51:00,
2013-04-25 04:07:00,52.9,52.3,29.92,SSW,202,1.6,-999.0,98,-99.99,,,0.00,Acu-Link.com,2013-04-25 08:07:00,
2013-04-25 04:22:00,53.2,52.7,29.94,West,270,2.2,-999.0,98,-99.99,,,0.00,Acu-Link.com,2013-04-25 08:22:00,
2013-04-25 04:37:00,54.0,53.4,29.96,SSW,202,4.3,-999.0,98,-99.99,,,0.00,Acu-Link.com,2013-04-25 08:37:00,
2013-04-25 04:52:00,54.3,53.8,29.98,East,90,4.3,-999.0,98,-99.99,,,0.00,Acu-Link.com,2013-04-25 08:52:00,
2013-04-25 05:07:00,53.6,53.0,29.99,SW,225,4.3,-999.0,98,-99.99,,,0.00,Acu-Link.com,2013-04-25 09:07:00,
2013-04-25 05:23:00,52.5,52.0,29.99,West,270,2.7,-999.0,98,-99.99,,,0.00,Acu-Link.com,2013-04-25 09:23:00,
2013-04-25 05:38:00,51.8,51.3,30.02,SW,225,5.8,-999.0,98,-99.99,,,0.00,Acu-Link.com,2013-04-25 09:38:00,
2013-04-25 05:53:00,51.4,50.9,30.02,NNW,337,3.1,-999.0,98,-99.99,,,0.00,Acu-Link.com,2013-04-25 09:53:00,
2013-04-25 06:08:00,50.9,50.4,30.03,NNW,337,3.1,-999.0,98,-99.99,,,0.00,Acu-Link.com,2013-04-25 10:08:00,
2013-04-25 06:23:00,50.4,49.8,30.04,NW,315,2.7,-999.0,98,-99.99,,,0.00,Acu-Link.com,2013-04-25 10:23:00,
2013-04-25 06:39:00,48.0,47.5,30.08,SW,225,3.1,-999.0,98,-99.99,,,0.00,Acu-Link.com,2013-04-25 10:39:00,
2013-04-25 06:54:00,46.8,46.2,30.09,North,0,1.6,-999.0,98,-99.99,,,0.02,Acu-Link.com,2013-04-25 10:54:00,
2013-04-25 07:09:00,46.8,46.2,30.09,NNW,337,3.8,-999.0,98,-99.99,,,0.02,Acu-Link.com,2013-04-25 11:09:00,
2013-04-25 07:24:00,47.5,46.9,30.09,WNW,292,2.7,-999.0,98,-99.99,,,0.02,Acu-Link.com,2013-04-25 11:24:00,
2013-04-25 07:39:00,48.7,48.2,30.12,WNW,292,3.8,-999.0,98,-99.99,,,0.02,Acu-Link.com,2013-04-25 11:39:00,
2013-04-25 07:55:00,49.3,48.7,30.12,West,270,3.8,-999.0,98,-99.99,,,0.02,Acu-Link.com,2013-04-25 11:55:00,
2013-04-25 08:10:00,49.6,49.1,30.11,SSW,202,4.7,-999.0,98,-99.99,,,0.02,Acu-Link.com,2013-04-25 12:10:00,
2013-04-25 08:25:00,49.5,48.9,30.13,West,270,2.7,-999.0,98,-99.99,,,0.02,Acu-Link.com,2013-04-25 12:25:00,
2013-04-25 08:40:00,53.1,52.5,30.14,SSE,157,3.8,-999.0,98,-99.99,,,0.02,Acu-Link.com,2013-04-25 12:40:00,
2013-04-25 08:56:00,54.5,53.9,30.15,West,270,2.2,-999.0,98,-99.99,,,0.02,Acu-Link.com,2013-04-25 12:56:00,
2013-04-25 09:11:00,54.1,53.6,30.15,WNW,292,4.7,-999.0,98,-99.99,,,0.02,Acu-Link.com,2013-04-25 13:11:00,
2013-04-25 09:26:00,54.7,52.4,30.14,South,180,3.8,-999.0,92,-99.99,,,0.02,Acu-Link.com,2013-04-25 13:26:00,
2013-04-25 09:41:00,55.6,50.5,30.14,WSW,247,3.1,-999.0,83,-99.99,,,0.02,Acu-Link.com,2013-04-25 13:41:00,
2013-04-25 09:56:00,55.4,49.0,30.14,NW,315,7.8,-999.0,79,-99.99,,,0.02,Acu-Link.com,2013-04-25 13:56:00,
2013-04-25 10:12:00,55.9,48.8,30.15,West,270,5.8,-999.0,77,-99.99,,,0.02,Acu-Link.com,2013-04-25 14:12:00,
2013-04-25 10:27:00,57.9,48.9,30.17,NNW,337,3.1,-999.0,72,-99.99,,,0.02,Acu-Link.com,2013-04-25 14:27:00,
2013-04-25 10:42:00,57.4,48.4,30.17,SSW,202,4.7,-999.0,72,-99.99,,,0.02,Acu-Link.com,2013-04-25 14:42:00,
2013-04-25 10:57:00,57.9,47.4,30.17,SW,225,4.7,-999.0,68,-99.99,,,0.02,Acu-Link.com,2013-04-25 14:57:00,
2013-04-25 11:13:00,56.7,43.8,30.17,SSW,202,8.3,-999.0,62,-99.99,,,0.02,Acu-Link.com,2013-04-25 15:13:00,
2013-04-25 11:28:00,57.0,43.3,30.18,West,270,7.8,-999.0,60,-99.99,,,0.02,Acu-Link.com,2013-04-25 15:28:00,
2013-04-25 11:43:00,58.8,45.0,30.18,NW,315,2.2,-999.0,60,-99.99,,,0.02,Acu-Link.com,2013-04-25 15:43:00,
2013-04-25 11:58:00,58.5,42.8,30.18,WSW,247,6.3,-999.0,56,-99.99,,,0.02,Acu-Link.com,2013-04-25 15:58:00,
2013-04-25 12:13:00,58.5,41.9,30.18,NNW,337,4.7,-999.0,54,-99.99,,,0.02,Acu-Link.com,2013-04-25 16:13:00,
2013-04-25 12:29:00,59.5,41.4,30.18,ESE,112,2.7,-999.0,51,-99.99,,,0.02,Acu-Link.com,2013-04-25 16:29:00,
2013-04-25 12:44:00,60.8,41.0,30.18,WNW,292,3.8,-999.0,48,-99.99,,,0.02,Acu-Link.com,2013-04-25 16:44:00,
2013-04-25 12:59:00,60.4,39.0,30.18,West,270,4.7,-999.0,45,-99.99,,,0.02,Acu-Link.com,2013-04-25 16:59:00,
2013-04-25 13:14:00,62.2,37.6,30.18,NW,315,1.6,-999.0,40,-99.99,,,0.02,Acu-Link.com,2013-04-25 17:14:00,
2013-04-25 13:29:00,62.2,38.9,30.18,SSW,202,1.1,-999.0,42,-99.99,,,0.02,Acu-Link.com,2013-04-25 17:29:00,
2013-04-25 13:45:00,63.0,38.3,30.17,NW,315,4.7,-999.0,40,-99.99,,,0.02,Acu-Link.com,2013-04-25 17:45:00,
2013-04-25 14:00:00,63.5,37.4,30.17,WSW,247,6.7,-999.0,38,-99.99,,,0.02,Acu-Link.com,2013-04-25 18:00:00,
2013-04-25 14:15:00,65.3,36.9,30.17,West,270,4.7,-999.0,35,-99.99,,,0.02,Acu-Link.com,2013-04-25 18:15:00,
2013-04-25 14:31:00,64.6,35.6,30.17,North,0,2.7,-999.0,34,-99.99,,,0.02,Acu-Link.com,2013-04-25 18:31:00,
2013-04-25 14:46:00,65.8,35.9,30.17,NNW,337,3.1,-999.0,33,-99.99,,,0.02,Acu-Link.com,2013-04-25 18:46:00,
2013-04-25 15:02:00,65.3,35.5,30.16,WNW,292,1.6,-999.0,33,-99.99,,,0.02,Acu-Link.com,2013-04-25 19:02:00,
2013-04-25 15:17:00,64.2,33.7,30.16,West,270,2.7,-999.0,32,-99.99,,,0.02,Acu-Link.com,2013-04-25 19:17:00,
2013-04-25 15:32:00,64.6,35.6,30.15,NNE,22,5.1,-999.0,34,-99.99,,,0.02,Acu-Link.com,2013-04-25 19:32:00,
2013-04-25 15:47:00,64.9,31.9,30.16,ESE,112,1.6,-999.0,29,-99.99,,,0.02,Acu-Link.com,2013-04-25 19:47:00,
2013-04-25 16:02:00,65.5,35.6,30.17,West,270,3.8,-999.0,33,-99.99,,,0.02,Acu-Link.com,2013-04-25 20:02:00,
2013-04-25 16:18:00,63.3,34.5,30.16,SW,225,4.3,-999.0,34,-99.99,,,0.02,Acu-Link.com,2013-04-25 20:18:00,
2013-04-25 16:33:00,64.4,33.9,30.16,NNW,337,2.2,-999.0,32,-99.99,,,0.02,Acu-Link.com,2013-04-25 20:33:00,
2013-04-25 16:48:00,65.7,33.4,30.17,WNW,292,3.8,-999.0,30,-99.99,,,0.02,Acu-Link.com,2013-04-25 20:48:00,
2013-04-25 17:03:00,65.5,32.4,30.17,NW,315,2.2,-999.0,29,-99.99,,,0.02,Acu-Link.com,2013-04-25 21:03:00,
2013-04-25 17:19:00,64.8,31.8,30.17,WSW,247,3.8,-999.0,29,-99.99,,,0.02,Acu-Link.com,2013-04-25 21:19:00,
2013-04-25 17:34:00,63.5,28.9,30.17,East,90,1.1,-999.0,27,-99.99,,,0.02,Acu-Link.com,2013-04-25 21:34:00,
2013-04-25 17:49:00,64.6,29.8,30.18,NW,315,1.6,-999.0,27,-99.99,,,0.02,Acu-Link.com,2013-04-25 21:49:00,
2013-04-25 18:04:00,65.3,28.6,30.18,West,270,3.1,-999.0,25,-99.99,,,0.02,Acu-Link.com,2013-04-25 22:04:00,
2013-04-25 18:19:00,66.7,28.8,30.18,NW,315,1.6,-999.0,24,-99.99,,,0.02,Acu-Link.com,2013-04-25 22:19:00,
2013-04-25 18:35:00,62.2,40.6,30.18,ENE,67,2.2,-999.0,45,-99.99,,,0.02,Acu-Link.com,2013-04-25 22:35:00,
2013-04-25 18:50:00,61.7,39.0,30.19,SW,225,2.2,-999.0,43,-99.99,,,0.02,Acu-Link.com,2013-04-25 22:50:00,
2013-04-25 19:05:00,59.7,38.9,30.19,ESE,112,2.2,-999.0,46,-99.99,,,0.02,Acu-Link.com,2013-04-25 23:05:00,
2013-04-25 19:20:00,58.6,39.0,30.19,SW,225,1.6,-999.0,48,-99.99,,,0.02,Acu-Link.com,2013-04-25 23:20:00,
2013-04-25 19:35:00,57.4,38.9,30.20,SSE,157,0.0,-999.0,50,-99.99,,,0.02,Acu-Link.com,2013-04-25 23:35:00,
2013-04-25 19:51:00,56.1,38.7,30.20,ESE,112,1.1,-999.0,52,-99.99,,,0.02,Acu-Link.com,2013-04-25 23:51:00,
2013-04-25 20:06:00,54.7,40.2,30.20,SSW,202,1.6,-999.0,58,-99.99,,,0.02,Acu-Link.com,2013-04-26 00:06:00,
2013-04-25 20:21:00,53.2,42.6,30.22,SSE,157,3.1,-999.0,67,-99.99,,,0.02,Acu-Link.com,2013-04-26 00:21:00,
2013-04-25 20:36:00,52.0,46.0,30.22,SW,225,2.7,-999.0,80,-99.99,,,0.02,Acu-Link.com,2013-04-26 00:36:00,
2013-04-25 20:51:00,51.1,49.1,30.24,ESE,112,0.0,-999.0,93,-99.99,,,0.02,Acu-Link.com,2013-04-26 00:51:00,
2013-04-25 21:07:00,50.4,49.8,30.24,South,180,1.1,-999.0,98,-99.99,,,0.02,Acu-Link.com,2013-04-26 01:07:00,
2013-04-25 21:22:00,49.6,49.1,30.25,SW,225,1.6,-999.0,98,-99.99,,,0.02,Acu-Link.com,2013-04-26 01:22:00,
2013-04-25 21:37:00,49.1,48.6,30.26,SW,225,0.0,-999.0,98,-99.99,,,0.02,Acu-Link.com,2013-04-26 01:37:00,
2013-04-25 21:52:00,48.7,48.2,30.26,South,180,0.0,-999.0,98,-99.99,,,0.02,Acu-Link.com,2013-04-26 01:52:00,
2013-04-25 22:08:00,48.0,47.5,30.27,South,180,1.1,-999.0,98,-99.99,,,0.02,Acu-Link.com,2013-04-26 02:08:00,
2013-04-25 22:23:00,47.7,47.1,30.27,South,180,0.0,-999.0,98,-99.99,,,0.02,Acu-Link.com,2013-04-26 02:23:00,
2013-04-25 22:38:00,47.1,46.6,30.27,SSE,157,1.6,-999.0,98,-99.99,,,0.02,Acu-Link.com,2013-04-26 02:38:00,
2013-04-25 22:53:00,46.8,46.2,30.27,SE,135,0.0,-999.0,98,-99.99,,,0.02,Acu-Link.com,2013-04-26 02:53:00,
2013-04-25 23:08:00,46.2,45.7,30.27,South,180,0.0,-999.0,98,-99.99,,,0.02,Acu-Link.com,2013-04-26 03:08:00,
2013-04-25 23:24:00,45.7,45.1,30.27,South,180,0.0,-999.0,98,-99.99,,,0.02,Acu-Link.com,2013-04-26 03:24:00,
2013-04-25 23:39:00,45.5,45.0,30.28,SE,135,0.0,-999.0,98,-99.99,,,0.02,Acu-Link.com,2013-04-26 03:39:00,
2013-04-25 23:54:00,45.0,44.4,30.28,ENE,67,0.0,-999.0,98,-99.99,,,0.02,Acu-Link.com,2013-04-26 03:54:00,